Regional Weather Roundup
Issued by NWS

Home | Current Version | Previous Version | Text Only | Print | Product List | Glossary Off
Versions: 1 2 3 4 5 6 7 8 9 10 11 12 13 14 15 16 17 18 19 20 21 22 23 24 25 26 27 28 29 30 31 32 33 34 35 36 37 38 39 40 41 42 43 44 45 46 47 48 49 50

000
ASUS43 KDTX 281601
RWRMI
MICHIGAN HOURLY REGIONAL WEATHER ROUNDUP
NATIONAL WEATHER SERVICE DETROIT/PONTIAC MI
1200 PM EDT THU MAY 28 2015

NOTE: "FAIR" INDICATES FEW OR NO CLOUDS BELOW 12,000 FEET WITH NO
SIGNIFICANT WEATHER AND/OR OBSTRUCTION TO VISIBILITY.

MIZ047>049-052>055-059>063-066>070-074>076-081>083-281700-
SOUTHEAST LOWER MICHIGAN

CITY           SKY/WX    TMP DP  RH WIND       PRES   REMARKS
ADRIAN         SUNNY     73  57  57 SE7       30.28R
ALMA           SUNNY     75  62  62 S8        30.24R
ANN ARBOR      SUNNY     74  57  55 SE7       30.27R
BAD AXE        SUNNY     73  53  48 S6        30.24S
CARO           SUNNY     76  59  56 SW8       30.23R
DETROIT CITY   SUNNY     73  55  53 SE8       30.27R
DETROIT        MOSUNNY   74  57  55 S6        30.27R
FLINT          SUNNY     78  56  46 VRB3      30.25R
GROSSE ILE     SUNNY     66  63  88 S8        30.27R
HILLSDALE      SUNNY     75  52  44 SE6       30.27S
HOWELL         SUNNY     74  53  48 S5        30.26R

CITY           SKY/WX    TMP DP  RH WIND       PRES   REMARKS
JACKSON        SUNNY     74  54  49 SW5       30.26R
LAMBERTVILLE   SUNNY     73  59  60 E5        30.27S
LANSING        SUNNY     75  58  55 S8        30.25R
LAPEER         FAIR      74  54  48 SW6       30.25S
MASON          SUNNY     73  54  52 CALM      30.26R
MONROE         SUNNY     72  59  64 S7        30.27R
MT. CLEMENS    MOSUNNY   71  58  62 SE5       30.25R
PONTIAC        SUNNY     73  55  53 CALM      30.25S
PORT HOPE        N/A     73  55  53 SW6       30.22R
PORT HURON     SUNNY     72  57  60 CALM      30.26S
TRI CITIES     SUNNY     76  57  51 SW7       30.23R
MIDLAND        FAIR      75  57  52 SW8       30.21S
TROY           SUNNY     75  55  49 SW5       30.28R
SAGINAW HB     SUNNY     75  55  50 S8        30.23R
$$
MIZ043>046-050>051-056>058-064>065-071>073-077>080-281700-
SOUTHWEST LOWER MICHIGAN

CITY           SKY/WX    TMP DP  RH WIND       PRES   REMARKS
BATTLE CREEK   SUNNY     75  57  53 S8        30.26S
BENTON HARBOR  SUNNY     74  57  55 VRB5      30.24S
BIG RAPIDS     SUNNY     76  55  47 CALM      30.22R
COLDWATER      SUNNY     73  53  50 S6        30.26S
FREMONT        FAIR      75  60  60 SW7       30.22S
HOLLAND        SUNNY     72  57  59 SW15      30.26R
GRAND RAPIDS   SUNNY     77  59  53 CALM      30.24R
IONIA          FAIR      76  58  53 S6        30.24R
KALAMAZOO      SUNNY     75  57  53 S6        30.25S
LUDINGTON      SUNNY     66  56  71 W7        30.21R
MARSHALL       SUNNY     74  55  50 E3        30.25S
MOUNT PLEASANT SUNNY     75  59  56 SW3       30.22R
MUSKEGON       SUNNY     69  52  54 SW15      30.25R
SOUTH HAVEN    SUNNY     72  58  60 W5        30.25R
$$
MIZ016>042-281700-
NORTHERN LOWER MICHIGAN

CITY           SKY/WX    TMP DP  RH WIND       PRES   REMARKS
ALPENA         SUNNY     74  57  55 S6        30.21R
BEAVER ISLAND  SUNNY     63  52  67 W6        30.20R
BELLAIRE       SUNNY     72  55  56 S3        30.20R
CADILLAC       SUNNY     76  55  46 SW8       30.21R
FRANKFORT      SUNNY     76  54  46 W5        30.18S
GAYLORD        SUNNY     72  56  57 CALM      30.20R
GRAYLING       SUNNY     76  55  47 S5        30.21R
HARBOR SPRINGS SUNNY     64  55  72 SW3       30.20S
HOUGHTON LAKE  SUNNY     72  55  55 SW6       30.22R
MANISTEE       SUNNY     75  57  53 CALM      30.20R
OSCODA         SUNNY     74  58  56 S9        30.21R
PELLSTON       SUNNY     71  58  63 VRB3      30.19S
ROGERS CITY    SUNNY     62  55  79 N5        30.22S
TRAVERSE CITY  SUNNY     72  57  59 N6        30.18R
$$
MIZ007>008-015-281700-
EASTERN UPPER MICHIGAN

CITY           SKY/WX    TMP DP  RH WIND       PRES   REMARKS
KINROSS        SUNNY     66  57  72 S3        30.20R
MACKINAC ISLAN SUNNY     63  55  75 NE3       30.20S
NEWBERRY       SUNNY     61  58  89 CALM      30.19R
S. S. MARIE    MOSUNNY   65  56  72 VRB3      30.20R
$$
MIZ004>006-011>014-085-281700-
CENTRAL UPPER MICHIGAN

CITY           SKY/WX    TMP DP  RH WIND       PRES   REMARKS
MANISTIQUE     SUNNY     57  53  85 E5        30.19R
ESCANABA       SUNNY     66  55  68 E6        30.15S
MENOMINEE      SUNNY     61  52  72 E10       30.16S
SAWYER-GWINN   SUNNY     61  50  67 E3        30.18S
$$
MIZ001>003-009>011-084-281700-
WESTERN UPPER MICHIGAN

CITY           SKY/WX    TMP DP  RH WIND       PRES   REMARKS
IRON MOUNTAIN  SUNNY     69  58  67 SE6       30.14F
HOUGHTON       CLOUDY    48  44  86 E14G22    30.16S
IRONWOOD       SUNNY     75  63  64 CALM      30.04F
$$

ABBREVIATIONS USED IN REMARKS
   TC - TEMPERATURE IN CELSIUS
  WCI - WIND CHILL INDEX
   HX - HEAT INDEX
  VSB - VISIBILITY




USA.gov is the U.S. government's official web portal to all federal, state and local government web resources and services.